COSMOS 2457 (733)

Last updated on June 24, 2019, 3:41 a.m. UTC

1 36112U 09070B   19174.21073001  .00000076  00000-0  00000+0 0  9997
2 36112  64.1846 158.3211 0005153 197.6532 129.3876  2.13101515 74109
UTC
Height (km)
Latitude
Longitude
Inclination
Orbital Period
UTC large
Height (km)
Speed (km/s)
/
Latitude / Longitude
Inclination (degrees)
Orbital Period (minutes)
Azimuth
Elevation
Range (km)
Doppler Factor
iOS Compass Heading
iOS Angle

Next 30 passes for location: Hong Kong

Rise time Rise Azimuth (degrees) Set time Set Azimuth (degrees) Duration Max altitude (degrees)

No matching passes for this satellites